User: anonymous   Login
Location: Haieshausen
(51.8387°N, 9.9720°E)
Time: 08:23:22
(UTC+00:00)
Language:

Cosmos 1607 - Orbit

View from above orbital plane
View from above orbital plane
View from above satellite
View from above satellite

Ground track
Ground track

The orbit data is extracted from the following two-line orbital elements,

1 15378U 84112A   20271.90106418 -.00000080 +00000-0 +75999-5 0  9994
2 15378 064.9918 067.2232 0055416 305.6053 053.9851 13.83567428816056
Epoch (UTC): 27 September 2020 21:37:31
Eccentricity: 0.0055416
inclination: 64.9918°
perigee height: 910 km
apogee height: 992 km
right ascension of ascending node: 67.2232°
argument of perigee: 305.6053°
revolutions per day: 13.83567428
mean anomaly at epoch: 53.9851°
orbit number at epoch: 81605

The dashed part of the orbit path shows where the satellite is in the earth's shadow,  

DLR